Slocum Ammonite on mission AlterEco 7 Piloting

  • Public vehicle
  • Serial Number unit_304
  • Operated by NOC on the AlterECO project

Laboratory simulation for Tier-2 training exercises

  • Deployed: 2019/03/11 00:00:00 UTC (220 days ago)
  • Time at Sea: 7 months
  • Profiles Performed: 3201

Near Real-Time Data

 
conductivity
density
potential_density
potential_temperature
salinity
sound_velocity
temperature

Communication Log

# Updated Depth Speed Plots
1623161 2019-05-28 09:58:14 UTC (142 days ago)
1623156 2019-05-28 09:39:43 UTC (142 days ago)
1623154 2019-05-28 09:33:38 UTC (142 days ago)
1623152 2019-05-28 09:27:20 UTC (142 days ago)
1623149 2019-05-28 09:21:11 UTC (142 days ago)
1623145 2019-05-28 09:05:06 UTC (142 days ago)
1623141 2019-05-28 08:49:00 UTC (142 days ago)
1623136 2019-05-28 08:32:55 UTC (142 days ago)
1623131 2019-05-28 08:15:54 UTC (142 days ago)
1623129 2019-05-28 08:07:25 UTC (142 days ago)
1623127 2019-05-28 08:07:00 UTC (142 days ago)
1623122 2019-05-28 07:46:40 UTC (142 days ago)
1623121 2019-05-28 07:45:38 UTC (142 days ago)
1623119 2019-05-28 07:41:36 UTC (142 days ago)
1623118 2019-05-28 07:41:18 UTC (142 days ago)
1623112 2019-05-28 07:21:09 UTC (142 days ago)
1623111 2019-05-28 07:20:08 UTC (142 days ago)
1623109 2019-05-28 07:16:05 UTC (142 days ago)
1623108 2019-05-28 07:15:52 UTC (142 days ago)
1623102 2019-05-28 06:55:37 UTC (142 days ago)